Waarnemingen

Advertentie
Mijn weer
Pisa/S. Giusto, Italië (16158): temperatuur & dauwpunt: 19.02.2018 02:00:00 - 25.02.2018 02:00:00 (CET)Pisa/S. Giusto, Italië (16158): windsnelheid: 19.02.2018 02:00:00 - 25.02.2018 02:00:00 (CET)Pisa/S. Giusto, Italië (16158): windrichting: 19.02.2018 02:00:00 - 25.02.2018 02:00:00 (CET)Pisa/S. Giusto, Italië (16158): luchtdruk: 19.02.2018 02:00:00 - 25.02.2018 02:00:00 (CET)Pisa/S. Giusto, Italië (16158): zicht: 19.02.2018 02:00:00 - 25.02.2018 02:00:00 (CET)Pisa/S. Giusto, Italië (16158): Zonneschijnduur: 19.02.2018 02:00:00 - 25.02.2018 02:00:00 (CET)
Datum & Tijd tt [°C] td [°C] ff [km/u] ff [kn] dd ppp [hPa] vv [km] sd [min]
25.02.2018 02:00:00 8,0 4,0 16 9 OZO - 10 -
25.02.2018 01:00:00 8,4 4,6 16 9 OZO 1008,7 10 -
25.02.2018 00:00:00 8,0 4,0 18 10 OZO - 10 -
24.02.2018 23:00:00 8,0 4,0 21 11 OZO - 10 -
24.02.2018 22:00:00 8,4 3,8 16 9 OZO 1007,7 10 -
24.02.2018 21:00:00 8,0 3,0 18 10 OZO - 10 -
24.02.2018 20:00:00 9,0 3,0 24 13 ZO - 10 -
24.02.2018 19:00:00 10,0 2,8 18 10 ZO 1007,1 10 0
24.02.2018 18:00:00 10,0 3,0 22 12 OZO - 10 -
24.02.2018 17:00:00 12,0 3,0 22 12 O - 10 -
24.02.2018 16:00:00 13,4 3,2 22 12 O 1005,3 10 18
24.02.2018 15:00:00 14,0 3,0 18 10 O - 10 -
24.02.2018 14:00:00 14,0 3,0 22 12 O - 10 -
24.02.2018 13:00:00 14,8 3,0 29 16 O 1005,7 10 36
24.02.2018 12:00:00 15,0 4,0 31 17 O - 10 -
24.02.2018 11:00:00 13,0 3,0 26 14 O - 10 -
24.02.2018 10:00:00 12,0 1,6 18 10 O 1005,0 10 0
24.02.2018 09:00:00 11,0 2,0 16 9 ONO - 10 -
24.02.2018 08:00:00 11,0 2,0 21 11 ONO - 10 -
24.02.2018 07:00:00 11,0 2,8 22 12 ONO 1002,6 10 -
24.02.2018 06:00:00 11,0 3,0 39 21 O - 10 -
24.02.2018 05:00:00 11,0 3,0 16 9 ONO - 10 -
24.02.2018 04:00:00 10,4 3,0 26 14 ONO 1001,7 10 -
24.02.2018 03:00:00 10,0 3,0 22 12 ONO - 10 -
24.02.2018 02:00:00 6,0 6,0 8 4 O - 10 -
24.02.2018 01:00:00 6,4 5,5 4 2 ZO 1002,4 10 -
24.02.2018 00:00:00 6,0 6,0 5 3 ZZO - 10 -
23.02.2018 23:00:00 6,0 6,0 5 3 Z - 10 -
23.02.2018 22:00:00 6,4 5,5 4 2 Z 1002,9 10 -
23.02.2018 21:00:00 6,0 5,0 5 3 ONO - 10 -
23.02.2018 20:00:00 6,0 6,0 9 5 WZW - 10 -
23.02.2018 19:00:00 6,4 5,5 4 2 - 1002,8 10 -
23.02.2018 18:00:00 7,0 6,0 8 4 O - 10 -
23.02.2018 17:00:00 7,0 6,0 5 3 ZZO - 10 -
23.02.2018 16:00:00 9,0 4,8 11 6 O 1003,3 10 0
23.02.2018 15:00:00 10,0 5,0 8 4 OZO - 10 -
23.02.2018 14:00:00 11,0 2,0 16 9 O - 10 -
23.02.2018 13:00:00 10,6 2,2 16 9 ZO 1003,4 10 0
23.02.2018 12:00:00 11,0 2,0 15 8 OZO - 10 -
23.02.2018 11:00:00 11,0 2,0 21 11 O - 10 -
23.02.2018 10:00:00 9,8 1,2 18 10 O 1003,3 10 0
23.02.2018 09:00:00 9,0 1,0 21 11 O - 10 -
23.02.2018 08:00:00 8,0 1,0 18 10 O - 10 -
23.02.2018 07:00:00 8,0 0,7 18 10 ONO 1001,7 10 -
23.02.2018 06:00:00 8,0 1,0 26 14 O - 10 -
23.02.2018 05:00:00 7,0 2,0 26 14 O - 10 -
23.02.2018 04:00:00 7,4 2,3 24 13 ONO 1001,9 10 -
23.02.2018 03:00:00 7,0 2,0 21 11 O - 10 -
23.02.2018 02:00:00 7,0 3,0 28 15 O - 10 -
23.02.2018 01:00:00 7,0 3,3 28 15 ONO 1002,8 10 -
23.02.2018 00:00:00 7,0 4,0 26 14 ONO - 10 -
22.02.2018 23:00:00 6,0 5,0 9 5 NNO - 10 -
22.02.2018 22:00:00 6,8 1,7 18 10 NO 1003,7 10 -
22.02.2018 21:00:00 7,0 2,0 13 7 OZO - 10 -
22.02.2018 20:00:00 7,0 1,0 5 3 ONO - 10 -
22.02.2018 19:00:00 7,0 1,1 16 9 OZO 1003,4 10 -
22.02.2018 18:00:00 8,0 1,0 16 9 O - 10 -
22.02.2018 17:00:00 9,0 1,0 18 10 O - 10 -
22.02.2018 16:00:00 9,8 0,9 22 12 O 1003,2 10 0
22.02.2018 15:00:00 10,0 1,0 16 9 O - 10 -
22.02.2018 14:00:00 10,0 1,0 22 12 O - 10 -
22.02.2018 13:00:00 9,8 -0,1 24 13 ONO 1003,5 10 0
22.02.2018 12:00:00 9,0 0,0 16 9 O - 10 -
22.02.2018 11:00:00 9,0 0,0 16 9 O - 10 -
22.02.2018 10:00:00 7,0 1,5 11 6 O 1003,3 10 0
22.02.2018 09:00:00 7,0 2,0 18 10 OZO - 10 -
22.02.2018 08:00:00 6,0 2,0 21 11 OZO - 10 -
22.02.2018 07:00:00 6,0 2,5 11 6 OZO 1002,7 10 -
22.02.2018 06:00:00 5,0 3,0 8 4 O - 10 -
22.02.2018 05:00:00 6,0 3,0 9 5 O - 10 -
22.02.2018 04:00:00 6,0 3,7 9 5 O 1003,8 10 -
22.02.2018 03:00:00 6,0 4,0 15 8 OZO - 10 -
22.02.2018 02:00:00 6,0 4,0 13 7 OZO - 10 -
22.02.2018 01:00:00 6,0 4,5 11 6 ZO 1004,8 10 -
22.02.2018 00:00:00 6,0 5,0 13 7 O - 10 -
21.02.2018 23:00:00 7,0 4,0 15 8 ONO - 10 -
21.02.2018 22:00:00 7,0 1,9 4 2 - 1004,8 10 -
21.02.2018 21:00:00 7,0 2,0 5 3 NNW - 10 -
21.02.2018 20:00:00 7,0 0,0 11 6 NNW - 10 -
21.02.2018 19:00:00 7,0 1,1 15 8 O 1004,8 10 -
21.02.2018 18:00:00 8,0 1,0 28 15 O - 10 -
21.02.2018 17:00:00 8,0 1,0 11 6 O - 10 -
21.02.2018 16:00:00 9,0 -0,1 21 11 O 1004,7 10 0
21.02.2018 15:00:00 10,0 0,0 24 13 OZO - 10 -
21.02.2018 14:00:00 10,0 -2,0 8 4 - - 10 -
21.02.2018 13:00:00 9,0 -0,1 11 6 O 1005,7 10 0
21.02.2018 12:00:00 9,0 0,0 13 7 ZO - 10 -
21.02.2018 11:00:00 9,0 -1,0 22 12 O - 10 -
21.02.2018 10:00:00 8,4 -0,9 21 11 O 1005,0 10 0
21.02.2018 09:00:00 7,0 0,0 16 9 O - 10 -
21.02.2018 08:00:00 6,0 -1,0 15 8 O - 10 -
21.02.2018 07:00:00 5,8 0,2 13 7 O 1004,9 10 0
21.02.2018 06:00:00 5,0 0,0 13 7 ZO - 10 -
21.02.2018 05:00:00 5,0 1,0 9 5 ZO - 10 -
21.02.2018 04:00:00 5,0 1,7 2 1 ZZO 1005,6 10 -
21.02.2018 03:00:00 5,0 3,0 2 1 WZW - 10 -
21.02.2018 02:00:00 5,0 2,0 4 2 NNW - 10 -
21.02.2018 01:00:00 5,0 1,5 2 1 WZW 1005,9 10 -
21.02.2018 00:00:00 5,0 1,0 4 2 O - 10 -
20.02.2018 23:00:00 4,0 1,0 5 3 ZZO - 10 -
20.02.2018 22:00:00 4,4 1,1 5 3 ZZW 1006,5 10 -
20.02.2018 21:00:00 5,0 1,0 2 1 - - 10 -
20.02.2018 20:00:00 5,0 0,0 5 3 ZZO - 10 -
20.02.2018 19:00:00 6,0 -1,6 8 4 O 1006,3 10 -
20.02.2018 18:00:00 7,0 -1,0 11 6 ONO - 10 -
20.02.2018 17:00:00 8,0 -2,0 21 11 ONO - 10 -
20.02.2018 16:00:00 9,0 -1,4 15 8 O 1006,5 10 30
20.02.2018 15:00:00 9,0 -2,0 21 11 O - 10 -
20.02.2018 14:00:00 10,0 -1,0 21 11 O - 10 -
20.02.2018 13:00:00 10,4 -1,0 21 11 O 1007,4 10 60
20.02.2018 12:00:00 10,0 -1,0 18 10 OZO - 10 -
20.02.2018 11:00:00 8,0 -1,0 22 12 OZO - 10 -
20.02.2018 10:00:00 5,2 -0,2 18 10 OZO 1009,2 10 60
20.02.2018 09:00:00 4,0 -1,0 11 6 OZO - 10 -
20.02.2018 08:00:00 2,0 -1,0 8 4 OZO - 10 -
20.02.2018 07:00:00 2,0 -1,1 5 3 ZO 1009,8 10 -
20.02.2018 06:00:00 2,0 0,0 9 5 O - 10 -
20.02.2018 05:00:00 2,0 0,0 9 5 O - 10 -
20.02.2018 04:00:00 2,0 -0,3 11 6 OZO 1010,8 10 -
20.02.2018 03:00:00 2,0 0,0 5 3 ZO - 10 -
20.02.2018 02:00:00 2,0 0,0 13 7 OZO - 10 -
20.02.2018 01:00:00 2,2 -0,1 11 6 ZO 1012,6 10 -
20.02.2018 00:00:00 3,0 0,0 13 7 ZO - 10 -
19.02.2018 23:00:00 3,0 0,0 15 8 OZO - 10 -
19.02.2018 22:00:00 3,4 1,1 13 7 ZO 1012,8 10 -
19.02.2018 21:00:00 4,0 1,0 13 7 ZO - 10 -
19.02.2018 20:00:00 5,0 1,0 16 9 OZO - 10 -
19.02.2018 19:00:00 6,0 1,3 18 10 OZO 1012,9 10 0
19.02.2018 18:00:00 7,0 1,0 16 9 OZO - 10 -
19.02.2018 17:00:00 10,0 2,0 22 12 OZO - 10 -
19.02.2018 16:00:00 10,2 2,1 22 12 OZO 1013,3 10 18
19.02.2018 15:00:00 11,0 2,0 18 10 OZO - 10 -
19.02.2018 14:00:00 11,0 3,0 21 11 ZO - 10 -
19.02.2018 13:00:00 9,2 1,4 16 9 ZO 1014,9 10 0
19.02.2018 12:00:00 9,0 2,0 16 9 OZO - 10 -
19.02.2018 11:00:00 9,0 2,0 16 9 OZO - 10 -
19.02.2018 10:00:00 7,2 1,1 13 7 O 1015,7 10 0
19.02.2018 09:00:00 7,0 1,0 15 8 OZO - 10 -
19.02.2018 08:00:00 7,0 1,0 16 9 OZO - 10 -
19.02.2018 07:00:00 6,8 1,3 18 10 OZO 1015,7 10 -
19.02.2018 06:00:00 7,0 1,0 16 9 OZO - 10 -
19.02.2018 05:00:00 7,0 0,0 13 7 OZO - 10 -
19.02.2018 04:00:00 7,6 -0,1 5 3 O 1015,9 10 -
19.02.2018 03:00:00 7,0 0,0 18 10 OZO - 10 -
19.02.2018 02:00:00 8,0 -1,0 15 8 O - 10 -

tt = temperatuur
td = dauwpunt
ff = windsnelheid
dd = windrichting
ppp = luchtdruk
vv = zicht
sd = Zonneschijnduur

Weerstations in de omgeving